TVF32ME LFRS-LFKB

Flight info

Callsign TVF32ME
Flight time 1h 38m
Altitude 25000
Route LUGEN UM184 TUPAR/N0416F290 DCT DIDRU DCT BEBIX/N0438F350 DCT LERGA DCT RETNO DCT KOLON DCT NIRDO
Aircraft B738/M-SDE2E3FGHIRWXY/LB1

Departure

Time 2026-04-20 20:55
Airport Nantes Atlantique Airport (LFRS)

Arrival

Time 2026-04-20 22:33
Airport Bastia-Poretta International airport (LFKB)
Time Latitude Longitude Altitude Speed Heading
2026-04-20 20:18 47.15770 -1.60345 89 ft 0 kts 127°
2026-04-20 20:37 47.15771 -1.60348 89 ft 2 kts 127°
2026-04-20 20:38 47.15787 -1.60378 92 ft 4 kts 127°
2026-04-20 20:38 47.15801 -1.60406 89 ft 4 kts 129°
2026-04-20 20:38 47.15820 -1.60427 90 ft 4 kts 181°
2026-04-20 20:38 47.15842 -1.60414 90 ft 4 kts 218°
2026-04-20 20:39 47.15862 -1.60393 91 ft 2 kts 207°
2026-04-20 20:39 47.15863 -1.60392 91 ft 0 kts 207°
2026-04-20 20:47 47.15861 -1.60393 91 ft 1 kts 207°
2026-04-20 20:47 47.15850 -1.60402 88 ft 3 kts 207°
2026-04-20 20:47 47.15830 -1.60416 92 ft 4 kts 206°
2026-04-20 20:48 47.15802 -1.60436 91 ft 5 kts 207°
2026-04-20 20:48 47.15767 -1.60462 88 ft 6 kts 208°
2026-04-20 20:48 47.15725 -1.60495 90 ft 7 kts 208°
2026-04-20 20:48 47.15677 -1.60532 90 ft 8 kts 207°
2026-04-20 20:49 47.15620 -1.60575 89 ft 10 kts 206°
2026-04-20 20:49 47.15561 -1.60617 91 ft 9 kts 206°
2026-04-20 20:49 47.15502 -1.60664 90 ft 10 kts 208°
2026-04-20 20:49 47.15433 -1.60718 90 ft 12 kts 207°
2026-04-20 20:50 47.15362 -1.60772 91 ft 11 kts 207°
2026-04-20 20:50 47.15288 -1.60827 90 ft 13 kts 207°
2026-04-20 20:50 47.15199 -1.60894 92 ft 15 kts 208°
2026-04-20 20:50 47.15106 -1.60966 90 ft 15 kts 208°
2026-04-20 20:51 47.15009 -1.61041 89 ft 17 kts 207°
2026-04-20 20:51 47.14906 -1.61119 91 ft 16 kts 207°
2026-04-20 20:51 47.14807 -1.61195 89 ft 16 kts 207°
2026-04-20 20:51 47.14706 -1.61271 90 ft 16 kts 207°
2026-04-20 20:52 47.14606 -1.61347 89 ft 17 kts 207°
2026-04-20 20:52 47.14495 -1.61431 88 ft 18 kts 207°
2026-04-20 20:52 47.14384 -1.61516 88 ft 19 kts 207°
2026-04-20 20:52 47.14259 -1.61611 88 ft 20 kts 207°
2026-04-20 20:53 47.14181 -1.61674 83 ft 11 kts 227°
2026-04-20 20:53 47.14151 -1.61773 84 ft 10 kts 251°
2026-04-20 20:53 47.14148 -1.61875 87 ft 10 kts 289°
2026-04-20 20:53 47.14186 -1.61931 86 ft 8 kts
2026-04-20 20:54 47.14234 -1.61896 85 ft 8 kts 27°
2026-04-20 20:54 47.14307 -1.61840 85 ft 21 kts 27°
2026-04-20 20:54 47.14651 -1.61579 92 ft 89 kts 27°
2026-04-20 20:54 47.15391 -1.61016 90 ft 148 kts 28°
2026-04-20 20:55 47.16356 -1.60270 575 ft 161 kts 28°
2026-04-20 20:55 47.17299 -1.59383 1412 ft 151 kts 53°
2026-04-20 20:55 47.17545 -1.58002 2228 ft 149 kts 102°
2026-04-20 20:55 47.16903 -1.56778 2997 ft 148 kts 129°
2026-04-20 20:56 47.16080 -1.55841 3615 ft 162 kts 148°
2026-04-20 20:56 47.15040 -1.55159 4227 ft 165 kts 150°
2026-04-20 20:56 47.13959 -1.54372 4543 ft 189 kts 149°
2026-04-20 20:56 47.12729 -1.53442 4851 ft 208 kts 150°
2026-04-20 20:57 47.11364 -1.52412 5042 ft 229 kts 150°
2026-04-20 20:57 47.09884 -1.51301 5266 ft 252 kts 150°
2026-04-20 20:57 47.08258 -1.50076 5653 ft 268 kts 150°
2026-04-20 20:57 47.06637 -1.48800 6589 ft 262 kts 145°
2026-04-20 20:58 47.05193 -1.47127 7151 ft 271 kts 135°
2026-04-20 20:58 47.03803 -1.45209 7767 ft 276 kts 135°
2026-04-20 20:58 47.02389 -1.43270 8456 ft 281 kts 136°
2026-04-20 20:58 47.00935 -1.41312 9094 ft 287 kts 137°
2026-04-20 20:59 46.99439 -1.39344 9827 ft 289 kts 139°
2026-04-20 20:59 46.97940 -1.37399 10568 ft 290 kts 139°
2026-04-20 20:59 46.96387 -1.35386 10825 ft 310 kts 140°
2026-04-20 20:59 46.94729 -1.33215 11031 ft 330 kts 139°
2026-04-20 21:00 46.92975 -1.30916 11347 ft 345 kts 139°
2026-04-20 21:00 46.91164 -1.28549 11896 ft 352 kts 139°
2026-04-20 21:00 46.89326 -1.26154 12542 ft 357 kts 140°
2026-04-20 21:00 46.87458 -1.23726 13169 ft 362 kts 140°
2026-04-20 21:01 46.85553 -1.21259 13801 ft 369 kts 140°
2026-04-20 21:01 46.83614 -1.18750 14359 ft 375 kts 140°
2026-04-20 21:01 46.81652 -1.16209 15026 ft 378 kts 140°
2026-04-20 21:01 46.79677 -1.13651 15725 ft 381 kts 140°
2026-04-20 21:02 46.77683 -1.11070 16364 ft 385 kts 140°
2026-04-20 21:02 46.75665 -1.08460 16970 ft 391 kts 141°
2026-04-20 21:02 46.74313 -1.06713 17380 ft 394 kts 141°
2026-04-20 21:02 46.72253 -1.04054 18005 ft 398 kts 141°
2026-04-20 21:03 46.70172 -1.01369 18592 ft 402 kts 141°
2026-04-20 21:03 46.68066 -0.98654 19123 ft 406 kts 141°
2026-04-20 21:03 46.65938 -0.95915 19655 ft 411 kts 141°
2026-04-20 21:03 46.63786 -0.93146 20170 ft 415 kts 141°
2026-04-20 21:04 46.61614 -0.90355 20688 ft 419 kts 141°
2026-04-20 21:04 46.59418 -0.87539 21191 ft 423 kts 141°
2026-04-20 21:04 46.57202 -0.84696 21689 ft 427 kts 141°
2026-04-20 21:04 46.54969 -0.81821 22166 ft 431 kts 141°
2026-04-20 21:05 46.52722 -0.78925 22695 ft 434 kts 141°
2026-04-20 21:05 46.50444 -0.75988 23160 ft 439 kts 141°
2026-04-20 21:05 46.48148 -0.73035 23614 ft 443 kts 141°
2026-04-20 21:05 46.45830 -0.70061 24013 ft 447 kts 141°
2026-04-20 21:06 46.43611 -0.66878 24440 ft 452 kts 133°
2026-04-20 21:06 46.41731 -0.63211 24889 ft 456 kts 122°
2026-04-20 21:06 46.40241 -0.59212 25307 ft 458 kts 117°
2026-04-20 21:06 46.38792 -0.55013 25698 ft 462 kts 117°
2026-04-20 21:07 46.37361 -0.50816 26022 ft 466 kts 117°
2026-04-20 21:07 46.35931 -0.46656 26377 ft 469 kts 117°
2026-04-20 21:07 46.34463 -0.42438 26849 ft 469 kts 117°
2026-04-20 21:07 46.32981 -0.38225 27245 ft 471 kts 118°
2026-04-20 21:08 46.31478 -0.33987 27560 ft 475 kts 118°
2026-04-20 21:08 46.29959 -0.29722 27866 ft 479 kts 118°
2026-04-20 21:08 46.28428 -0.25430 28225 ft 481 kts 118°
2026-04-20 21:08 46.26887 -0.21118 28589 ft 484 kts 118°
2026-04-20 21:09 46.25339 -0.16789 28922 ft 486 kts 118°
2026-04-20 21:09 46.23782 -0.12439 29247 ft 489 kts 118°
2026-04-20 21:09 46.22216 -0.08071 29572 ft 491 kts 118°
2026-04-20 21:09 46.20638 -0.03675 29872 ft 494 kts 118°
2026-04-20 21:10 46.19101 0.00620 30166 ft 497 kts 117°
2026-04-20 21:10 46.17764 0.05231 30352 ft 501 kts 107°
2026-04-20 21:10 46.16889 0.10100 30584 ft 502 kts 102°
2026-04-20 21:10 46.16116 0.15005 30935 ft 501 kts 102°
2026-04-20 21:11 46.15356 0.19909 31267 ft 501 kts 102°
2026-04-20 21:11 46.14587 0.24806 31558 ft 501 kts 102°
2026-04-20 21:11 46.13800 0.29705 31869 ft 501 kts 102°
2026-04-20 21:11 46.13002 0.34580 32335 ft 496 kts 103°
2026-04-20 21:12 46.12208 0.39357 33133 ft 484 kts 103°
2026-04-20 21:12 46.11426 0.44026 33831 ft 476 kts 103°
2026-04-20 21:12 46.10644 0.48675 34066 ft 478 kts 103°
2026-04-20 21:12 46.09870 0.53267 34312 ft 478 kts 103°
2026-04-20 21:13 46.09074 0.57983 34557 ft 478 kts 103°
2026-04-20 21:13 46.08298 0.62570 34795 ft 478 kts 103°
2026-04-20 21:13 46.07509 0.67219 35024 ft 478 kts 103°
2026-04-20 21:13 46.06714 0.71899 35024 ft 485 kts 103°
2026-04-20 21:14 46.05078 0.81489 35050 ft 495 kts 103°
2026-04-20 21:14 46.03423 0.91133 35032 ft 496 kts 103°
2026-04-20 21:15 46.01808 1.00488 35011 ft 487 kts 103°
2026-04-20 21:15 46.00170 1.09935 35025 ft 487 kts 103°
2026-04-20 21:16 45.98527 1.19360 35038 ft 488 kts 103°
2026-04-20 21:16 45.96869 1.28827 35028 ft 489 kts 103°
2026-04-20 21:17 45.95203 1.38285 35018 ft 487 kts 104°
2026-04-20 21:17 45.92989 1.47509 35034 ft 490 kts 112°
2026-04-20 21:18 45.90341 1.56569 35030 ft 493 kts 113°
2026-04-20 21:18 45.87671 1.65667 35029 ft 496 kts 112°
2026-04-20 21:19 45.85040 1.74821 35041 ft 497 kts 112°
2026-04-20 21:20 45.81120 1.88565 35032 ft 496 kts 112°
2026-04-20 21:20 45.78502 1.97708 35051 ft 495 kts 112°
2026-04-20 21:21 45.75911 2.06708 35044 ft 494 kts 112°
2026-04-20 21:21 45.73287 2.15790 35037 ft 493 kts 112°
2026-04-20 21:22 45.70663 2.24834 35040 ft 491 kts 112°
2026-04-20 21:22 45.68040 2.33847 35042 ft 490 kts 112°
2026-04-20 21:23 45.65415 2.42831 35039 ft 489 kts 112°
2026-04-20 21:23 45.62786 2.51797 35050 ft 489 kts 113°
2026-04-20 21:24 45.60153 2.60744 35049 ft 489 kts 113°
2026-04-20 21:24 45.57512 2.69689 35051 ft 489 kts 113°
2026-04-20 21:25 45.54857 2.78646 35053 ft 490 kts 113°
2026-04-20 21:25 45.52191 2.87611 35049 ft 491 kts 113°
2026-04-20 21:26 45.49534 2.96510 35053 ft 491 kts 113°
2026-04-20 21:26 45.46888 3.05344 35055 ft 491 kts 114°
2026-04-20 21:27 45.44199 3.14291 35064 ft 492 kts 114°
2026-04-20 21:27 45.41498 3.23242 35060 ft 492 kts 114°
2026-04-20 21:28 45.38788 3.32193 35056 ft 493 kts 114°
2026-04-20 21:28 45.36069 3.41143 35059 ft 493 kts 114°
2026-04-20 21:29 45.33338 3.50101 35055 ft 494 kts 114°
2026-04-20 21:29 45.30602 3.59048 35061 ft 494 kts 114°
2026-04-20 21:30 45.27859 3.67988 35058 ft 494 kts 114°
2026-04-20 21:30 45.24997 3.76838 35054 ft 493 kts 121°
2026-04-20 21:31 45.21331 3.85027 35074 ft 491 kts 125°
2026-04-20 21:31 45.17539 3.93092 35060 ft 492 kts 125°
2026-04-20 21:32 45.13829 4.01080 35065 ft 492 kts 124°
2026-04-20 21:32 45.10098 4.09206 35048 ft 492 kts 124°
2026-04-20 21:33 45.06376 4.17328 35050 ft 492 kts 124°
2026-04-20 21:33 45.02675 4.25380 35055 ft 492 kts 125°
2026-04-20 21:34 44.98945 4.33463 35047 ft 492 kts 125°
2026-04-20 21:34 44.95207 4.41539 35052 ft 491 kts 125°
2026-04-20 21:35 44.91459 4.49615 35036 ft 492 kts 125°
2026-04-20 21:35 44.87708 4.57673 35028 ft 491 kts 125°
2026-04-20 21:36 44.83949 4.65726 35017 ft 492 kts 125°
2026-04-20 21:36 44.80188 4.73762 35037 ft 491 kts 125°
2026-04-20 21:37 44.76425 4.81779 35028 ft 491 kts 125°
2026-04-20 21:37 44.72655 4.89788 35003 ft 491 kts 125°
2026-04-20 21:38 44.68878 4.97791 35018 ft 491 kts 125°
2026-04-20 21:38 44.65141 5.05684 35010 ft 492 kts 125°
2026-04-20 21:39 44.61345 5.13683 35008 ft 493 kts 125°
2026-04-20 21:39 44.57559 5.21638 35010 ft 494 kts 126°
2026-04-20 21:40 44.53712 5.29699 35004 ft 494 kts 126°
2026-04-20 21:40 44.49906 5.37652 35001 ft 495 kts 126°
2026-04-20 21:41 44.46068 5.45652 35006 ft 495 kts 126°
2026-04-20 21:41 44.42227 5.53635 34987 ft 494 kts 126°
2026-04-20 21:42 44.38385 5.61600 34995 ft 494 kts 126°
2026-04-20 21:42 44.34538 5.69542 34977 ft 493 kts 126°
2026-04-20 21:43 44.30683 5.77468 34976 ft 493 kts 126°
2026-04-20 21:43 44.26827 5.85383 34951 ft 493 kts 126°
2026-04-20 21:44 44.22972 5.93277 34967 ft 492 kts 126°
2026-04-20 21:44 44.19172 6.01036 34971 ft 491 kts 126°
2026-04-20 21:45 44.15322 6.08878 34968 ft 490 kts 126°
2026-04-20 21:45 44.11473 6.16696 34965 ft 489 kts 126°
2026-04-20 21:46 44.07631 6.24477 34973 ft 488 kts 126°
2026-04-20 21:46 44.03783 6.32252 34961 ft 487 kts 126°
2026-04-20 21:47 43.99945 6.39987 34962 ft 485 kts 126°
2026-04-20 21:47 43.96113 6.47688 34979 ft 484 kts 126°
2026-04-20 21:48 43.92273 6.55382 34965 ft 485 kts 126°
2026-04-20 21:48 43.88415 6.63095 34962 ft 488 kts 126°
2026-04-20 21:49 43.84534 6.70833 34958 ft 490 kts 126°
2026-04-20 21:49 43.80631 6.78595 34941 ft 492 kts 127°
2026-04-20 21:50 43.76770 6.86259 34596 ft 479 kts 127°
2026-04-20 21:50 43.74879 6.90005 34281 ft 472 kts 127°
2026-04-20 21:50 43.73636 6.92464 34020 ft 470 kts 127°
2026-04-20 21:50 43.71263 6.97435 33441 ft 466 kts 121°
2026-04-20 21:51 43.69757 7.01247 33050 ft 462 kts 118°
2026-04-20 21:51 43.68760 7.03902 32806 ft 460 kts 118°
2026-04-20 21:51 43.66852 7.09093 32278 ft 455 kts 117°
2026-04-20 21:51 43.65424 7.12969 31897 ft 452 kts 118°
2026-04-20 21:52 43.63993 7.16812 31521 ft 448 kts 118°
2026-04-20 21:52 43.62559 7.20617 31155 ft 445 kts 118°
2026-04-20 21:52 43.61590 7.23169 30907 ft 443 kts 118°
2026-04-20 21:52 43.60160 7.26920 30541 ft 440 kts 118°
2026-04-20 21:53 43.58733 7.30644 30156 ft 438 kts 118°
2026-04-20 21:53 43.57314 7.34340 29753 ft 435 kts 118°
2026-04-20 21:53 43.55903 7.38012 29357 ft 431 kts 118°
2026-04-20 21:53 43.54503 7.41650 28986 ft 427 kts 118°
2026-04-20 21:54 43.53114 7.45254 28729 ft 428 kts 118°
2026-04-20 21:54 43.51690 7.48945 28498 ft 445 kts 118°
2026-04-20 21:54 43.50211 7.52771 28256 ft 461 kts 118°
2026-04-20 21:54 43.48693 7.56696 27992 ft 465 kts 118°
2026-04-20 21:55 43.47193 7.60573 27730 ft 464 kts 118°
2026-04-20 21:55 43.45660 7.64528 27449 ft 461 kts 118°
2026-04-20 21:55 43.44156 7.68404 27185 ft 458 kts 118°
2026-04-20 21:55 43.42657 7.72261 26916 ft 456 kts 118°
2026-04-20 21:56 43.41166 7.76093 26653 ft 454 kts 118°
2026-04-20 21:56 43.39674 7.79920 26225 ft 453 kts 118°
2026-04-20 21:56 43.38210 7.83669 25782 ft 449 kts 118°
2026-04-20 21:56 43.36720 7.87483 25318 ft 445 kts 118°
2026-04-20 21:57 43.35261 7.91212 24872 ft 441 kts 118°
2026-04-20 21:57 43.33832 7.94858 24439 ft 438 kts 119°
2026-04-20 21:57 43.32394 7.98524 23996 ft 434 kts 119°
2026-04-20 21:57 43.30999 8.02075 23573 ft 432 kts 119°
2026-04-20 21:58 43.29575 8.05694 23059 ft 429 kts 119°
2026-04-20 21:58 43.28160 8.09286 22578 ft 426 kts 119°
2026-04-20 21:58 43.26757 8.12845 22135 ft 422 kts 119°
2026-04-20 21:58 43.25364 8.16374 21694 ft 419 kts 119°
2026-04-20 21:59 43.23980 8.19874 21254 ft 416 kts 119°
2026-04-20 21:59 43.22604 8.23353 20821 ft 413 kts 119°
2026-04-20 21:59 43.21236 8.26805 20393 ft 411 kts 119°
2026-04-20 21:59 43.19875 8.30235 19963 ft 409 kts 119°
2026-04-20 22:00 43.18521 8.33647 19547 ft 407 kts 119°
2026-04-20 22:00 43.17172 8.37041 19136 ft 405 kts 119°
2026-04-20 22:00 43.15824 8.40426 18706 ft 404 kts 119°
2026-04-20 22:00 43.14551 8.43845 18282 ft 403 kts 110°
2026-04-20 22:01 43.13916 8.47549 17836 ft 398 kts 99°
2026-04-20 22:01 43.13440 8.51267 17376 ft 395 kts 99°
2026-04-20 22:01 43.12959 8.54948 16924 ft 391 kts 99°
2026-04-20 22:01 43.12469 8.58591 16518 ft 388 kts 99°
2026-04-20 22:02 43.11974 8.62196 16111 ft 384 kts 100°
2026-04-20 22:02 43.11476 8.65763 15700 ft 377 kts 100°
2026-04-20 22:02 43.10986 8.69241 15302 ft 368 kts 100°
2026-04-20 22:02 43.10506 8.72635 14922 ft 359 kts 100°
2026-04-20 22:03 43.10034 8.75953 14541 ft 352 kts 100°
2026-04-20 22:03 43.09571 8.79213 14177 ft 347 kts 100°
2026-04-20 22:03 43.09109 8.82451 13813 ft 346 kts 100°
2026-04-20 22:03 43.08649 8.85677 13404 ft 344 kts 100°
2026-04-20 22:04 43.08193 8.88864 12991 ft 339 kts 100°
2026-04-20 22:04 43.07744 8.92000 12619 ft 333 kts 100°
2026-04-20 22:04 43.07301 8.95081 12258 ft 328 kts 101°
2026-04-20 22:04 43.06865 8.98116 11906 ft 323 kts 101°
2026-04-20 22:05 43.06444 9.01042 11566 ft 320 kts 101°
2026-04-20 22:05 43.06014 9.04017 11223 ft 318 kts 101°
2026-04-20 22:05 43.05586 9.06972 10873 ft 316 kts 101°
2026-04-20 22:05 43.05093 9.09912 10594 ft 317 kts 107°
2026-04-20 22:06 43.04436 9.12759 10472 ft 312 kts 109°
2026-04-20 22:06 43.03741 9.15550 10333 ft 309 kts 110°
2026-04-20 22:06 43.03047 9.18314 10195 ft 304 kts 110°
2026-04-20 22:06 43.02375 9.21017 10072 ft 297 kts 110°
2026-04-20 22:07 43.01725 9.23657 9917 ft 290 kts 110°
2026-04-20 22:07 43.01087 9.26266 9633 ft 289 kts 110°
2026-04-20 22:07 43.00454 9.28864 9364 ft 287 kts 110°
2026-04-20 22:07 42.99829 9.31438 9084 ft 285 kts 110°
2026-04-20 22:08 42.99213 9.33978 8867 ft 278 kts 110°
2026-04-20 22:08 42.98611 9.36458 8607 ft 273 kts 109°
2026-04-20 22:08 42.98018 9.38901 8336 ft 269 kts 109°
2026-04-20 22:08 42.97436 9.41297 8075 ft 263 kts 109°
2026-04-20 22:09 42.96868 9.43636 7824 ft 257 kts 110°
2026-04-20 22:09 42.96310 9.45930 7589 ft 252 kts 110°
2026-04-20 22:09 42.95768 9.48162 7359 ft 243 kts 110°
2026-04-20 22:09 42.95247 9.50300 7138 ft 233 kts 110°
2026-04-20 22:10 42.94737 9.52387 6919 ft 231 kts 110°
2026-04-20 22:10 42.94230 9.54459 6697 ft 230 kts 110°
2026-04-20 22:10 42.93733 9.56494 6489 ft 228 kts 110°
2026-04-20 22:10 42.93065 9.58421 6255 ft 223 kts 136°
2026-04-20 22:11 42.91788 9.59462 6059 ft 207 kts 173°
2026-04-20 22:11 42.90393 9.59533 5859 ft 196 kts 195°
2026-04-20 22:11 42.89127 9.59095 5656 ft 186 kts 200°
2026-04-20 22:11 42.87899 9.58637 5453 ft 180 kts 200°
2026-04-20 22:12 42.86702 9.58193 5296 ft 177 kts 200°
2026-04-20 22:12 42.85509 9.57751 5118 ft 179 kts 200°
2026-04-20 22:12 42.84329 9.57230 4938 ft 178 kts 209°
2026-04-20 22:12 42.83217 9.56490 4778 ft 178 kts 211°
2026-04-20 22:13 42.82127 9.55740 4726 ft 173 kts 210°
2026-04-20 22:13 42.81039 9.54994 4770 ft 178 kts 210°
2026-04-20 22:13 42.79907 9.54221 4543 ft 185 kts 210°
2026-04-20 22:13 42.78766 9.53448 4311 ft 181 kts 209°
2026-04-20 22:14 42.77642 9.52690 4024 ft 180 kts 208°
2026-04-20 22:14 42.76526 9.51939 3766 ft 177 kts 208°
2026-04-20 22:14 42.75442 9.51211 3567 ft 173 kts 207°
2026-04-20 22:14 42.74359 9.50484 3411 ft 175 kts 207°
2026-04-20 22:15 42.73258 9.49746 3251 ft 178 kts 207°
2026-04-20 22:15 42.72152 9.49004 3063 ft 176 kts 206°
2026-04-20 22:15 42.71057 9.48270 2884 ft 174 kts 206°
2026-04-20 22:15 42.69983 9.47551 2759 ft 170 kts 206°
2026-04-20 22:16 42.68947 9.46857 2569 ft 163 kts 206°
2026-04-20 22:16 42.67887 9.46488 2330 ft 157 kts 174°
2026-04-20 22:16 42.66815 9.46630 2161 ft 157 kts 176°
2026-04-20 22:16 42.65730 9.46700 1995 ft 154 kts 177°
2026-04-20 22:17 42.64668 9.46770 1817 ft 152 kts 175°
2026-04-20 22:17 42.63618 9.46875 1618 ft 151 kts 174°
2026-04-20 22:17 42.62573 9.46995 1466 ft 151 kts 175°
2026-04-20 22:17 42.61525 9.47102 1312 ft 151 kts 176°
2026-04-20 22:18 42.60455 9.47153 1146 ft 157 kts 178°
2026-04-20 22:18 42.59342 9.47181 934 ft 162 kts 178°
2026-04-20 22:18 42.58232 9.47333 676 ft 158 kts 170°
2026-04-20 22:18 42.57171 9.47636 329 ft 155 kts 167°
2026-04-20 22:19 42.56144 9.48031 197 ft 149 kts 164°
2026-04-20 22:19 42.55176 9.48451 225 ft 155 kts 163°
2026-04-20 22:19 42.54006 9.48967 619 ft 191 kts 163°
2026-04-20 22:19 42.52688 9.49541 1045 ft 206 kts 162°
2026-04-20 22:20 42.51299 9.50151 1392 ft 213 kts 162°
2026-04-20 22:20 42.49894 9.50801 1736 ft 220 kts 155°
2026-04-20 22:20 42.48598 9.51923 2078 ft 226 kts 132°
2026-04-20 22:20 42.47888 9.53812 2439 ft 231 kts 100°
2026-04-20 22:21 42.48011 9.56040 2526 ft 253 kts 70°
2026-04-20 22:21 42.49031 9.58082 2638 ft 274 kts 38°
2026-04-20 22:21 42.50707 9.59341 3469 ft 279 kts 17°
2026-04-20 22:21 42.52549 9.59947 4529 ft 266 kts 11°
2026-04-20 22:22 42.54306 9.60475 4873 ft 252 kts 11°
2026-04-20 22:22 42.55992 9.61002 4983 ft 247 kts 11°
2026-04-20 22:22 42.57653 9.61535 4987 ft 244 kts 11°
2026-04-20 22:22 42.59290 9.62071 4991 ft 241 kts 11°
2026-04-20 22:23 42.60913 9.62588 4992 ft 238 kts 10°
2026-04-20 22:23 42.62532 9.63076 5006 ft 239 kts
2026-04-20 22:23 42.64157 9.63562 5007 ft 239 kts
2026-04-20 22:23 42.65783 9.64049 5008 ft 240 kts
2026-04-20 22:24 42.67414 9.64539 5005 ft 240 kts
2026-04-20 22:24 42.69049 9.65032 5006 ft 241 kts
2026-04-20 22:24 42.70691 9.65257 4975 ft 234 kts 344°
2026-04-20 22:24 42.72118 9.64457 5011 ft 213 kts 331°
2026-04-20 22:25 42.73428 9.63660 4988 ft 200 kts 333°
2026-04-20 22:25 42.74704 9.62925 5007 ft 198 kts 334°
2026-04-20 22:25 42.75980 9.62211 5010 ft 199 kts 334°
2026-04-20 22:25 42.77268 9.61502 4980 ft 200 kts 334°
2026-04-20 22:26 42.78566 9.60794 4851 ft 201 kts 334°
2026-04-20 22:26 42.79860 9.60093 4717 ft 200 kts 335°
2026-04-20 22:26 42.81015 9.59119 4552 ft 194 kts 306°
2026-04-20 22:27 42.81240 9.55891 4505 ft 174 kts 243°
2026-04-20 22:27 42.80460 9.54656 4496 ft 175 kts 216°
2026-04-20 22:27 42.79367 9.53885 4442 ft 181 kts 210°
2026-04-20 22:27 42.78225 9.53100 4217 ft 183 kts 209°
2026-04-20 22:28 42.77097 9.52332 4005 ft 179 kts 208°
2026-04-20 22:28 42.76000 9.51592 3816 ft 173 kts 208°
2026-04-20 22:28 42.74925 9.50868 3642 ft 173 kts 207°
2026-04-20 22:28 42.73838 9.50138 3458 ft 175 kts 207°
2026-04-20 22:29 42.72776 9.49424 3274 ft 166 kts 207°
2026-04-20 22:29 42.71766 9.48746 3011 ft 159 kts 206°
2026-04-20 22:29 42.70784 9.48094 2762 ft 155 kts 205°
2026-04-20 22:29 42.69812 9.47479 2625 ft 154 kts 204°
2026-04-20 22:30 42.68834 9.46863 2601 ft 156 kts 205°
2026-04-20 22:30 42.67804 9.46389 2553 ft 158 kts 183°
2026-04-20 22:30 42.66711 9.46544 2421 ft 158 kts 172°
2026-04-20 22:30 42.65626 9.46742 2241 ft 157 kts 172°
2026-04-20 22:31 42.64536 9.46914 2027 ft 158 kts 174°
2026-04-20 22:31 42.63436 9.47033 1744 ft 156 kts 175°
2026-04-20 22:31 42.62355 9.47131 1340 ft 157 kts 176°
2026-04-20 22:31 42.61265 9.47232 1009 ft 157 kts 176°
2026-04-20 22:32 42.60180 9.47299 833 ft 156 kts 178°
2026-04-20 22:32 42.59087 9.47363 660 ft 157 kts 178°
2026-04-20 22:32 42.58015 9.47445 465 ft 152 kts 176°
2026-04-20 22:32 42.56993 9.47696 190 ft 147 kts 166°
2026-04-20 22:33 42.56025 9.48058 30 ft 140 kts 165°
2026-04-20 22:33 42.55254 9.48378 36 ft 85 kts 163°
2026-04-20 22:33 42.54851 9.48550 33 ft 39 kts 162°
2026-04-20 22:33 42.54612 9.48647 31 ft 36 kts 163°
2026-04-20 22:34 42.54387 9.48742 33 ft 27 kts 163°
2026-04-20 22:34 42.54237 9.48801 33 ft 15 kts 173°
2026-04-20 22:34 42.54152 9.48739 34 ft 11 kts 231°
2026-04-20 22:34 42.54127 9.48651 34 ft 10 kts 266°
2026-04-20 22:35 42.54146 9.48561 34 ft 10 kts 300°
2026-04-20 22:35 42.54197 9.48503 34 ft 10 kts 337°
2026-04-20 22:35 42.54259 9.48475 34 ft 9 kts 342°
2026-04-20 22:35 42.54322 9.48449 34 ft 9 kts 343°
2026-04-20 22:36 42.54381 9.48424 33 ft 9 kts 343°
2026-04-20 22:36 42.54440 9.48416 34 ft 9 kts
2026-04-20 22:36 42.54500 9.48415 34 ft 8 kts 348°
2026-04-20 22:36 42.54556 9.48393 34 ft 8 kts 343°
2026-04-20 22:37 42.54610 9.48371 34 ft 8 kts 343°
2026-04-20 22:37 42.54662 9.48349 34 ft 8 kts 342°
2026-04-20 22:37 42.54696 9.48334 34 ft 3 kts 342°
2026-04-20 22:37 42.54714 9.48327 34 ft 3 kts 342°
2026-04-20 22:38 42.54732 9.48319 34 ft 3 kts 342°
2026-04-20 22:38 42.54748 9.48304 34 ft 3 kts 304°
2026-04-20 22:38 42.54743 9.48271 34 ft 5 kts 247°
2026-04-20 22:38 42.54733 9.48229 34 ft 3 kts 253°
2026-04-20 22:39 42.54729 9.48211 33 ft 1 kts 253°
2026-04-20 22:39 42.54728 9.48207 33 ft 1 kts 253°
2026-04-20 22:39 42.54728 9.48206 33 ft 0 kts 253°
2026-04-20 22:39 42.54728 9.48205 33 ft 0 kts 253°